This demonstration page uses our WeatherBlox Daily Observations layout. Learn more.

Left ArrowRight Arrow

Hourly Observations for December 21, 2016

Temp ( °F °C ) Dew Point ( °F °C ) Humidity (%) Winds ( mph kmh ) Pressure ( in mb ) Visibility ( mi km ) Precip ( " mm )
12:51 am 00:51 Cloudy 54 12.2 30 -1.1 40 40 ESE 10 17 30.16 1022 10 16 N/A
1:51 am 01:51 Cloudy 54 12.2 31 -0.6 42 42 SE 6 9 30.17 1022 10 16 N/A
2:51 am 02:51 Cloudy 53 11.7 33 0.6 47 47 SE 6 9 30.17 1022 10 16 N/A
3:51 am 03:51 Cloudy 52 11.1 34 1.1 50 50 WNW 9 15 30.18 1022 10 16 N/A
4:51 am 04:51 Cloudy with Light Rain 49 9.4 38 3.3 66 66 W 6 9 30.19 1023 10 16 N/A
5:51 am 05:51 Cloudy 49 9.4 43 6.1 80 80 N N/A 30.19 1023 10 16 N/A
6:51 am 06:51 Cloudy with Light Rain 48 8.9 44 6.7 86 86 S 6 9 30.22 1023 10 16 N/A
7:51 am 07:51 Cloudy 47 8.3 42 5.6 83 83 ESE 6 9 30.22 1023 10 16 0.01 0.25
8:51 am 08:51 Cloudy 50 10 41 5 71 71 ESE 3 6 30.23 1024 10 16 N/A
9:51 am 09:51 Cloudy 50 10 43 6.1 77 77 SE 7 11 30.24 1024 10 16 0.01 0.25
10:51 am 10:51 Mostly Cloudy 53 11.7 42 5.6 66 66 E 8 13 30.19 1023 10 16 0.02 0.51
11:51 am 11:51 Cloudy 59 15 42 5.6 54 54 SE 9 15 30.16 1021 10 16 N/A
12:51 pm 12:51 Partly Cloudy 60 15.6 43 6.1 53 53 E 8 13 30.12 1020 10 16 N/A
1:51 pm 13:51 Cloudy 61 16.1 44 6.7 54 54 ESE 8 13 30.10 1019 10 16 N/A
2:51 pm 14:51 Cloudy 62 16.7 44 6.7 52 52 E 8 13 30.08 1019 10 16 N/A
3:51 pm 15:51 Cloudy with Light Rain 62 16.7 46 7.8 56 56 E 6 9 30.08 1019 10 16 N/A
4:51 pm 16:51 Cloudy 62 16.7 47 8.3 58 58 E 5 7 30.07 1018 10 16 0.01 0.25
5:51 pm 17:51 Cloudy 60 15.6 47 8.3 62 62 S 5 7 30.08 1019 10 16 N/A
6:51 pm 18:51 Cloudy 57 13.9 46 7.8 67 67 NW 3 6 30.10 1019 10 16 0.01 0.25
7:51 pm 19:51 Cloudy 56 13.3 47 8.3 72 72 W 3 6 30.11 1020 10 16 N/A
8:51 pm 20:51 Partly Cloudy 55 12.8 47 8.3 74 74 N N/A 30.10 1019 10 16 N/A
9:51 pm 21:51 Cloudy 53 11.7 48 8.9 83 83 N N/A 30.11 1020 10 16 N/A
10:51 pm 22:51 Cloudy 53 11.7 48 8.9 83 83 S 6 9 30.10 1019 10 16 N/A
11:51 pm 23:51 Cloudy 58 14.4 48 8.9 70 70 ESE 12 19 30.06 1018 10 16 N/A

Powered by AerisWeather